| time (UTC) | temp F | wind direction | speed knots | gust knots | rain 1hr in | rain 24hr in | rain mn in | humidity % | barometer mb |
| 20260905223244 | 57 | 0 | 0.0 | 0.0 | 0.00 | 0.00 | 0.00 | 81 | 1010.9 |
| 20260905222443 | 57 | 337 | 0.0 | 1.7 | 0.00 | 0.00 | 0.00 | 80 | 1010.8 |
| 20260905221643 | 57 | 22 | 0.0 | 0.0 | 0.00 | 0.00 | 0.00 | 80 | 1010.9 |
| 20260905220843 | 57 | 315 | 0.0 | 0.0 | 0.00 | 0.00 | 0.00 | 80 | 1010.9 |
| 20260905215243 | 57 | 337 | 0.0 | 0.0 | 0.00 | 0.00 | 0.00 | 79 | 1010.8 |
| 20260905214443 | 57 | 315 | 0.0 | 2.6 | 0.00 | 0.00 | 0.00 | 79 | 1010.7 |
| 20260905213644 | 58 | 337 | 1.7 | 1.7 | 0.00 | 0.00 | 0.00 | 78 | 1010.7 |
| 20260905212844 | 58 | 0 | 0.0 | 0.0 | 0.00 | 0.00 | 0.00 | 77 | 1010.6 |
| 20260905212044 | 58 | 22 | 0.0 | 2.6 | 0.00 | 0.00 | 0.00 | 76 | 1010.5 |
| 20260905211244 | 58 | 337 | 0.0 | 2.6 | 0.00 | 0.00 | 0.00 | 76 | 1010.6 |
| 20260905210444 | 59 | 22 | 0.0 | 0.9 | 0.00 | 0.00 | 0.00 | 76 | 1010.3 |
| 20260905205644 | 59 | 45 | 0.0 | 0.0 | 0.00 | 0.00 | 0.00 | 76 | 1010.4 |
| 20260905204844 | 59 | 0 | 0.0 | 4.3 | 0.00 | 0.00 | 0.00 | 76 | 1010.2 |
| 20260905204044 | 59 | 67 | 0.0 | 0.0 | 0.00 | 0.00 | 0.00 | 75 | 1010.1 |
| 20260905203244 | 59 | 315 | 0.0 | 0.9 | 0.00 | 0.00 | 0.00 | 75 | 1009.8 |
| 20260905202444 | 59 | 22 | 2.6 | 2.6 | 0.00 | 0.00 | 0.00 | 74 | 1010.0 |
| 20260905201644 | 59 | 315 | 0.0 | 0.0 | 0.00 | 0.00 | 0.00 | 74 | 1009.8 |
| 20260905200844 | 60 | 22 | 0.0 | 0.0 | 0.00 | 0.00 | 0.00 | 74 | 1009.7 |
| 20260905200044 | 60 | 337 | 0.0 | 0.0 | 0.00 | 0.00 | 0.00 | 74 | 1009.8 |
| 20260905195244 | 60 | 0 | 0.0 | 0.0 | 0.00 | 0.02 | 0.00 | 74 | 1009.9 |
| 20260905193644 | 59 | 292 | 0.9 | 0.9 | 0.00 | 0.02 | 0.00 | 74 | 1009.8 |
| 20260905192844 | 59 | 315 | 0.0 | 2.6 | 0.00 | 0.02 | 0.00 | 74 | 1009.8 |
| 20260905192044 | 59 | 67 | 0.0 | 0.9 | 0.00 | 0.02 | 0.00 | 75 | 1009.6 |
| 20260905191244 | 59 | 22 | 0.0 | 0.0 | 0.00 | 0.02 | 0.00 | 75 | 1009.8 |
| 20260905185644 | 59 | 0 | 0.0 | 0.9 | 0.00 | 0.06 | 0.00 | 75 | 1009.8 |
| 20260905184844 | 59 | 22 | 0.0 | 1.7 | 0.00 | 0.06 | 0.00 | 74 | 1009.8 |
| 20260905184044 | 59 | 0 | 0.0 | 1.7 | 0.00 | 0.06 | 0.00 | 73 | 1009.9 |
| 20260905183244 | 59 | 22 | 0.0 | 0.0 | 0.00 | 0.06 | 0.00 | 73 | 1009.9 |
| 20260905182444 | 59 | 22 | 0.0 | 0.0 | 0.00 | 0.06 | 0.00 | 72 | 1010.2 |
| 20260905181644 | 59 | 22 | 0.0 | 0.0 | 0.00 | 0.06 | 0.00 | 72 | 1010.1 |
| 20260905180844 | 60 | 22 | 0.0 | 0.0 | 0.00 | 0.06 | 0.00 | 71 | 1010.3 |
| 20260905175244 | 60 | 0 | 0.0 | 0.0 | 0.00 | 0.06 | 0.00 | 70 | 1009.9 |
| 20260905173644 | 60 | 0 | 0.0 | 0.0 | 0.00 | 0.06 | 0.00 | 69 | 1009.7 |
| 20260905172844 | 60 | 22 | 0.0 | 0.0 | 0.00 | 0.06 | 0.00 | 68 | 1009.7 |
| 20260905172044 | 60 | 0 | 0.0 | 0.0 | 0.00 | 0.06 | 0.00 | 68 | 1009.6 |
| 20260905171244 | 61 | 0 | 0.0 | 0.0 | 0.00 | 0.06 | 0.00 | 67 | 1009.7 |
| 20260905165644 | 61 | 22 | 0.0 | 0.9 | 0.00 | 0.06 | 0.00 | 67 | 1009.8 |
| 20260905164844 | 61 | 0 | 0.0 | 0.0 | 0.00 | 0.06 | 0.00 | 66 | 1009.8 |
| 20260905164044 | 61 | 0 | 0.0 | 0.0 | 0.00 | 0.06 | 0.00 | 66 | 1009.6 |
| 20260905163244 | 61 | 0 | 0.0 | 0.0 | 0.00 | 0.06 | 0.00 | 65 | 1009.5 |
| 20260905162444 | 62 | 0 | 0.0 | 0.9 | 0.00 | 0.06 | 0.00 | 64 | 1009.4 |
| 20260905161645 | 62 | 22 | 0.0 | 1.7 | 0.00 | 0.06 | 0.00 | 63 | 1009.4 |
| 20260905160844 | 62 | 0 | 0.0 | 5.2 | 0.00 | 0.06 | 0.00 | 62 | 1009.2 |
| 20260905155244 | 63 | 22 | 0.0 | 3.5 | 0.00 | 0.06 | 0.00 | 61 | 1009.1 |
| 20260905154444 | 63 | 315 | 0.0 | 4.3 | 0.00 | 0.06 | 0.00 | 60 | 1009.4 |
| 20260905153645 | 64 | 22 | 0.0 | 1.7 | 0.00 | 0.06 | 0.00 | 60 | 1009.3 |
| 20260905152844 | 64 | 315 | 0.0 | 4.3 | 0.00 | 0.06 | 0.00 | 60 | 1009.4 |
| 20260905152044 | 65 | 22 | 0.0 | 3.5 | 0.00 | 0.06 | 0.00 | 59 | 1009.3 |
| 20260905150445 | 66 | 315 | 0.0 | 0.9 | 0.00 | 0.06 | 0.00 | 56 | 1009.0 |
| 20260905145644 | 66 | 0 | 0.0 | 1.7 | 0.00 | 0.06 | 0.00 | 56 | 1008.9 |
| 20260905144844 | 67 | 22 | 2.6 | 4.3 | 0.00 | 0.06 | 0.00 | 55 | 1008.9 |
| 20260905144045 | 67 | 0 | 0.0 | 5.2 | 0.00 | 0.06 | 0.00 | 54 | 1008.7 |
| 20260905143244 | 68 | 315 | 2.6 | 4.3 | 0.00 | 0.06 | 0.00 | 54 | 1008.6 |
| 20260905142444 | 69 | 337 | 0.0 | 3.5 | 0.00 | 0.06 | 0.00 | 52 | 1008.5 |
| 20260905141644 | 69 | 0 | 1.7 | 3.5 | 0.00 | 0.06 | 0.00 | 52 | 1008.3 |
| 20260905140844 | 69 | 315 | 0.0 | 3.5 | 0.00 | 0.06 | 0.00 | 53 | 1008.3 |
| 20260905140047 | 69 | 337 | 0.0 | 4.3 | 0.00 | 0.06 | 0.00 | 53 | 1008.2 |
| 20260905135244 | 69 | 22 | 0.0 | 0.0 | 0.00 | 0.06 | 0.00 | 52 | 1008.0 |
| 20260905134444 | 70 | 22 | 0.0 | 1.7 | 0.00 | 0.06 | 0.00 | 54 | 1008.1 |
| 20260905133644 | 69 | 0 | 0.0 | 3.5 | 0.00 | 0.06 | 0.00 | 53 | 1008.1 |
| 20260905132844 | 69 | 45 | 0.0 | 4.3 | 0.00 | 0.06 | 0.00 | 54 | 1008.1 |
| 20260905132046 | 69 | 337 | 0.0 | 4.3 | 0.00 | 0.06 | 0.00 | 54 | 1008.2 |
| 20260905131244 | 70 | 337 | 0.0 | 1.7 | 0.00 | 0.06 | 0.00 | 52 | 1008.2 |
| 20260905130444 | 72 | 315 | 0.0 | 0.9 | 0.00 | 0.06 | 0.00 | 51 | 1008.2 |
| 20260905125644 | 71 | 67 | 0.0 | 7.0 | 0.00 | 0.06 | 0.00 | 51 | 1008.3 |
| 20260905124844 | 71 | 67 | 0.0 | 2.6 | 0.00 | 0.06 | 0.00 | 52 | 1008.2 |
| 20260905124044 | 69 | 67 | 0.0 | 0.0 | 0.00 | 0.06 | 0.00 | 55 | 1008.2 |
| 20260905123246 | 69 | 22 | 0.0 | 5.2 | 0.00 | 0.06 | 0.00 | 52 | 1008.3 |
| 20260905122446 | 70 | 22 | 0.0 | 1.7 | 0.00 | 0.06 | 0.00 | 53 | 1008.4 |
| 20260905121646 | 69 | 0 | 0.0 | 1.7 | 0.00 | 0.06 | 0.00 | 53 | 1008.3 |
| 20260905120044 | 70 | 67 | 0.0 | 5.2 | 0.00 | 0.06 | 0.00 | 52 | 1008.2 |
| 20260905115246 | 71 | 292 | 0.0 | 0.0 | 0.00 | 0.06 | 0.00 | 53 | 1008.1 |
| 20260905113644 | 69 | 315 | 0.0 | 0.0 | 0.00 | 0.06 | 0.00 | 55 | 1008.2 |
| 20260905112044 | 69 | 0 | 0.0 | 5.2 | 0.00 | 0.06 | 0.00 | 55 | 1008.0 |
| 20260905111244 | 71 | 337 | 2.6 | 3.5 | 0.00 | 0.06 | 0.00 | 53 | 1007.9 |
| 20260905110446 | 71 | 337 | 0.0 | 0.0 | 0.00 | 0.06 | 0.00 | 55 | 1008.0 |
| 20260905105646 | 71 | 45 | 0.0 | 3.5 | 0.00 | 0.06 | 0.00 | 55 | 1007.9 |
| 20260905104844 | 71 | 0 | 0.0 | 4.3 | 0.00 | 0.06 | 0.00 | 56 | 1007.9 |
| 20260905104044 | 70 | 22 | 2.6 | 2.6 | 0.00 | 0.06 | 0.00 | 58 | 1008.0 |
| 20260905103246 | 69 | 0 | 0.0 | 3.5 | 0.00 | 0.06 | 0.00 | 58 | 1007.8 |
| 20260905102444 | 69 | 337 | 0.0 | 4.3 | 0.00 | 0.06 | 0.00 | 59 | 1007.9 |
| 20260905101644 | 68 | 0 | 1.7 | 3.5 | 0.00 | 0.06 | 0.00 | 61 | 1007.9 |
| 20260905100044 | 66 | 337 | 0.0 | 0.0 | 0.00 | 0.06 | 0.00 | 63 | 1007.7 |
| 20260905095244 | 66 | 22 | 0.0 | 0.0 | 0.00 | 0.06 | 0.00 | 63 | 1007.6 |
| 20260905094444 | 66 | 315 | 0.0 | 2.6 | 0.00 | 0.06 | 0.00 | 62 | 1007.7 |
| 20260905093645 | 66 | 315 | 0.0 | 3.5 | 0.00 | 0.06 | 0.00 | 62 | 1007.8 |
| 20260905092844 | 67 | 315 | 0.0 | 2.6 | 0.00 | 0.06 | 0.00 | 62 | 1007.6 |
| 20260905092044 | 66 | 22 | 0.0 | 4.3 | 0.00 | 0.06 | 0.00 | 64 | 1007.6 |
| 20260905091244 | 66 | 0 | 0.0 | 3.5 | 0.00 | 0.06 | 0.00 | 65 | 1007.6 |
| 20260905090444 | 66 | 315 | 0.0 | 0.0 | 0.00 | 0.06 | 0.00 | 67 | 1007.3 |
| 20260905085645 | 65 | 0 | 0.0 | 4.3 | 0.00 | 0.06 | 0.00 | 68 | 1007.3 |
| 20260905084846 | 65 | 315 | 0.0 | 1.7 | 0.00 | 0.06 | 0.00 | 67 | 1007.3 |
| 20260905084045 | 65 | 22 | 0.0 | 5.2 | 0.00 | 0.06 | 0.00 | 68 | 1007.3 |
| 20260905083245 | 66 | 337 | 1.7 | 1.7 | 0.00 | 0.06 | 0.00 | 68 | 1007.2 |
| 20260905081645 | 65 | 22 | 0.0 | 0.9 | 0.00 | 0.06 | 0.00 | 69 | 1007.3 |
| 20260905080845 | 65 | 90 | 0.0 | 0.0 | 0.00 | 0.06 | 0.00 | 70 | 1007.3 |
| 20260905080044 | 64 | 0 | 0.0 | 3.5 | 0.00 | 0.06 | 0.00 | 71 | 1007.3 |
| 20260905075246 | 64 | 315 | 0.0 | 2.6 | 0.00 | 0.06 | 0.00 | 72 | 1007.2 |
| 20260905074446 | 64 | 0 | 0.0 | 1.7 | 0.00 | 0.06 | 0.00 | 73 | 1007.1 |
| 20260905073645 | 63 | 292 | 1.7 | 1.7 | 0.00 | 0.06 | 0.00 | 73 | 1006.9 |
| 20260905072845 | 63 | 292 | 0.0 | 3.5 | 0.00 | 0.06 | 0.00 | 73 | 1007.0 |
| 20260905071245 | 63 | 45 | 1.7 | 1.7 | 0.00 | 0.06 | 0.00 | 74 | 1006.9 |
| 20260905070445 | 63 | 292 | 0.0 | 1.7 | 0.00 | 0.06 | 0.00 | 75 | 1006.7 |
| 20260905065645 | 62 | 90 | 0.0 | 0.0 | 0.00 | 0.06 | 0.00 | 75 | 1006.5 |
| 20260905064045 | 62 | 337 | 0.0 | 0.0 | 0.00 | 0.06 | 0.00 | 75 | 1006.1 |
| 20260905063246 | 62 | 0 | 0.0 | 0.0 | 0.00 | 0.06 | 0.00 | 75 | 1006.1 |
| 20260905062445 | 62 | 337 | 0.0 | 0.0 | 0.00 | 0.06 | 0.00 | 76 | 1006.1 |
| 20260905061645 | 61 | 337 | 0.0 | 2.6 | 0.00 | 0.06 | 0.00 | 77 | 1006.0 |
| 20260905060845 | 61 | 22 | 0.0 | 0.0 | 0.00 | 0.06 | 0.00 | 77 | 1005.8 |
| 20260905055245 | 60 | 0 | 0.0 | 0.0 | 0.00 | 0.06 | 0.00 | 76 | 1005.8 |
| 20260905054445 | 60 | 22 | 0.0 | 0.0 | 0.00 | 0.06 | 0.00 | 77 | 1005.7 |
| 20260905053645 | 60 | 0 | 0.0 | 0.0 | 0.00 | 0.06 | 0.00 | 77 | 1005.5 |
| 20260905052845 | 60 | 292 | 0.0 | 0.0 | 0.00 | 0.06 | 0.00 | 77 | 1005.7 |
| 20260905052045 | 59 | 0 | 0.0 | 3.5 | 0.00 | 0.06 | 0.00 | 77 | 1005.6 |
| 20260905051245 | 60 | 337 | 0.0 | 0.0 | 0.00 | 0.06 | 0.00 | 76 | 1005.5 |
| 20260905050445 | 60 | 337 | 0.0 | 3.5 | 0.00 | 0.06 | 0.00 | 76 | 1005.2 |
| 20260905045645 | 60 | 337 | 0.0 | 3.5 | 0.00 | 0.06 | 0.00 | 76 | 1004.9 |
| 20260905044845 | 60 | 292 | 1.7 | 1.7 | 0.00 | 0.06 | 0.00 | 77 | 1004.9 |
| 20260905044045 | 60 | 0 | 0.0 | 0.0 | 0.00 | 0.06 | 0.00 | 77 | 1004.9 |
| 20260905043245 | 60 | 337 | 0.0 | 0.0 | 0.00 | 0.06 | 0.00 | 77 | 1004.7 |
| 20260905042445 | 61 | 315 | 0.0 | 1.7 | 0.00 | 0.06 | 0.00 | 77 | 1004.5 |
| 20260905041646 | 61 | 67 | 0.0 | 1.7 | 0.00 | 0.06 | 0.00 | 78 | 1004.1 |
| 20260905040845 | 61 | 90 | 0.0 | 1.7 | 0.00 | 0.06 | 0.00 | 79 | 1004.2 |
| 20260905040045 | 61 | 22 | 0.0 | 0.0 | 0.00 | 0.06 | 0.00 | 81 | 1003.9 |
| 20260905035245 | 62 | 292 | 0.0 | 0.0 | 0.00 | 0.06 | 0.00 | 81 | 1003.8 |
| 20260905034445 | 62 | 292 | 0.0 | 5.2 | 0.00 | 0.06 | 0.00 | 82 | 1003.7 |
| 20260905033645 | 62 | 67 | 0.0 | 1.7 | 0.00 | 0.06 | 0.00 | 82 | 1003.5 |
| 20260905032845 | 62 | 337 | 0.0 | 1.7 | 0.00 | 0.06 | 0.00 | 82 | 1003.1 |
| 20260905032045 | 62 | 337 | 0.0 | 0.0 | 0.00 | 0.06 | 0.00 | 82 | 1003.0 |
| 20260905031245 | 62 | 22 | 0.0 | 2.6 | 0.00 | 0.06 | 0.00 | 82 | 1002.8 |
| 20260905030445 | 62 | 22 | 0.0 | 0.9 | 0.00 | 0.06 | 0.00 | 83 | 1002.9 |
| 20260905025645 | 62 | 22 | 1.7 | 3.5 | 0.00 | 0.06 | 0.00 | 83 | 1002.7 |
| 20260905024845 | 62 | 22 | 0.0 | 0.0 | 0.00 | 0.06 | 0.00 | 83 | 1002.9 |
| 20260905024045 | 62 | 292 | 0.0 | 0.9 | 0.00 | 0.06 | 0.00 | 83 | 1002.7 |
| 20260905023245 | 62 | 0 | 0.0 | 0.0 | 0.00 | 0.06 | 0.00 | 83 | 1002.8 |
| 20260905022445 | 62 | 90 | 0.0 | 0.0 | 0.00 | 0.06 | 0.00 | 82 | 1003.0 |
| 20260905021645 | 62 | 0 | 0.0 | 1.7 | 0.00 | 0.06 | 0.00 | 82 | 1002.7 |
| 20260905020845 | 62 | 337 | 2.6 | 5.2 | 0.00 | 0.06 | 0.00 | 82 | 1002.6 |
| 20260905020045 | 62 | 45 | 0.0 | 1.7 | 0.00 | 0.06 | 0.00 | 82 | 1002.3 |
| 20260905015245 | 63 | 0 | 4.3 | 4.3 | 0.00 | 0.06 | 0.00 | 82 | 1002.1 |
| 20260905014445 | 63 | 22 | 0.0 | 5.2 | 0.00 | 0.06 | 0.00 | 82 | 1002.1 |
| 20260905013645 | 63 | 337 | 0.0 | 3.5 | 0.00 | 0.06 | 0.00 | 82 | 1002.1 |
| 20260905012845 | 63 | 0 | 0.0 | 1.7 | 0.00 | 0.06 | 0.00 | 82 | 1002.3 |
| 20260905012045 | 63 | 292 | 0.0 | 0.0 | 0.00 | 0.06 | 0.00 | 83 | 1002.2 |
| 20260905011245 | 64 | 22 | 1.7 | 1.7 | 0.00 | 0.06 | 0.00 | 83 | 1002.0 |
| 20260905010445 | 64 | 337 | 0.0 | 0.0 | 0.00 | 0.06 | 0.00 | 83 | 1001.9 |
| 20260905005645 | 64 | 315 | 1.7 | 5.2 | 0.00 | 0.06 | 0.00 | 83 | 1001.5 |
| 20260905004846 | 64 | 22 | 0.0 | 3.5 | 0.00 | 0.06 | 0.00 | 85 | 1001.5 |
| 20260905004045 | 64 | 337 | 0.0 | 1.7 | 0.00 | 0.06 | 0.00 | 85 | 1001.4 |
| 20260905003245 | 64 | 0 | 0.0 | 1.7 | 0.00 | 0.06 | 0.00 | 86 | 1001.3 |
| 20260905002445 | 64 | 0 | 0.0 | 2.6 | 0.00 | 0.06 | 0.00 | 86 | 1001.2 |
| 20260905001645 | 64 | 0 | 0.0 | 0.0 | 0.00 | 0.06 | 0.00 | 87 | 1001.3 |
| 20260905000845 | 64 | 22 | 0.0 | 2.6 | 0.00 | 0.06 | 0.00 | 87 | 1001.2 |
| 20260905000045 | 64 | 0 | 0.0 | 0.9 | 0.00 | 0.06 | 0.00 | 88 | 1001.5 |
| 20260904235246 | 64 | 0 | 0.0 | 0.0 | 0.00 | 0.06 | 0.00 | 88 | 1001.3 |
| 20260904234445 | 64 | 22 | 0.0 | 0.0 | 0.00 | 0.06 | 0.00 | 88 | 1001.2 |
| 20260904233645 | 64 | 22 | 0.0 | 0.0 | 0.00 | 0.06 | 0.00 | 89 | 1001.3 |
| 20260904232845 | 64 | 0 | 0.0 | 2.6 | 0.00 | 0.06 | 0.00 | 89 | 1001.0 |
| 20260904231245 | 64 | 22 | 0.0 | 0.0 | 0.00 | 0.06 | 0.00 | 89 | 1001.4 |
| 20260904230445 | 64 | 0 | 0.0 | 1.7 | 0.00 | 0.06 | 0.00 | 89 | 1001.3 |
| 20260904225648 | 64 | 337 | 0.0 | 0.0 | 0.00 | 0.06 | 0.00 | 89 | 1001.0 |
| 20260904224846 | 64 | 0 | 0.0 | 0.0 | 0.00 | 0.06 | 0.00 | 89 | 1000.9 |
| 20260904224045 | 64 | 22 | 0.0 | 0.0 | 0.00 | 0.06 | 0.00 | 89 | 1000.8 |